Regional Weather Roundup
Issued by NWS

Home | Current Version | Previous Version | Text Only | Print | Product List | Glossary On
Versions: 1 2 3 4 5 6 7 8 9 10 11 12 13 14 15 16 17 18 19 20 21 22 23 24 25 26 27 28 29 30 31 32 33 34 35 36 37 38 39 40 41 42 43 44 45 46 47 48 49 50
000
ASUS42 KTBW 271510
RWRFL
FLORIDA REGIONAL WEATHER ROUNDUP
NATIONAL WEATHER SERVICE TAMPA BAY RUSKIN FL
1100 AM EDT WED AUG 27 2014

NOTE: "FAIR" INDICATES FEW OR NO CLOUDS BELOW 12,000 FEET WITH NO
SIGNIFICANT WEATHER AND/OR OBSTRUCTIONS TO VISIBILITY.


FLZ001>010-012>015-112-114-115-271600-
PANHANDLE FLORIDA

CITY           SKY/WX    TMP DP  RH WIND       PRES   REMARKS
PENSACOLA      SUNNY     83  72  69 E8        30.05R
PENSACOLA NAS  MOSUNNY   86  74  67 E9        30.04R
MILTON NAS     MOSUNNY   84  69  60 SE5       30.06R
CRESTVIEW      SUNNY     87  68  52 E6        30.08R
DUKE FIELD     MOSUNNY   86  69  57 E6        30.05S
VALPARAISO     MOSUNNY   84  71  63 E8        30.06R
TRI COUNTY     HVY RAIN  84  70  62 SE7       30.08R
PANAMA CITY    FAIR      86  68  54 NE7       30.05R
TYNDALL AFB    SUNNY     85  72  64 E8        30.05S
APALACHICOLA   SUNNY     85  71  63 E9        30.04R

STATION/POSITION SKY/WX   TEMP    WIND        PRES    WAVE   SWELL
                          AIR SEA DIR/SP/G            HT/PER HT/PER
                          (F)     (DEG/KT/KT) (MB)    (FT/S) (FT/S)
30.1N   87.6W              82 85   80/ 16/ 17 1016.8R   3/ 6
29.2N   88.2W              82 86   90/ 19/ 23 1016.3R
28.8N   86.0W              84 87   90/ 16/ 19 1015.9R   5/ 6
PANAMA CITY BEAC           83 85  120/  9/ 11 1017.4R
CAPE SAN BLAS    NOT AVBL
TOWER C                    81      80/ 14/ 15 1017.0R
28.5N   84.5W              83 86   80/ 16/ 17 1015.9R   4/ 6

$$
FLZ011-016>038-118-127-128-134-139-239-271600-
NORTH FLORIDA

CITY           SKY/WX    TMP DP  RH WIND       PRES   REMARKS
MARIANNA       SUNNY     84  70  62 SE5       30.06R
TALLAHASSEE    MOSUNNY   87  67  51 VRB6      30.06R
PERRY          SUNNY     82  66  57 NE8       30.05S
CROSS CITY       N/A     84  69  60 NE9       30.03S
LAKE CITY      FAIR      81  64  57 NE10      30.04S
GAINESVILLE    MOSUNNY   81  71  71 NE8       30.03R
MAYPORT NAS    MOSUNNY   83  72  69 N14       30.02R
JACKSONVILLE   MOSUNNY   84  70  62 N10       30.02S
JAX NAS        MOSUNNY   86  69  56 N9        30.03R
JAX CRAIG      MOSUNNY   84  71  65 N14       30.02R
JAX CECIL      MOSUNNY   82  70  65 N12       30.03S
FERNANDINA BEA FAIR      82  68  61 NE14      30.02R
ST AUGUSTINE   PTSUNNY   83  71  67 N14       30.03R

STATION/POSITION SKY/WX   TEMP    WIND        PRES    WAVE   SWELL
                          AIR SEA DIR/SP/G            HT/PER HT/PER
                          (F)     (DEG/KT/KT) (MB)    (FT/S) (FT/S)
SHELL POINT                79      50/  2/  4   N/A
KEATON BEACH               82      60/  7/  9 1017.4R
CEDAR KEY                  79      60/ 12/ 12 1016.7R
FERNANDINA                 81 82   20/ 10/ 13 1016.2S
30.7N   81.3W                 83                N/A     5/10   2/11
MAYPORT                    80 82   10/ 13/ 16   N/A
31.4N   80.9W              79 84   10/ 14/ 17 1016.6R   5/10   3/10
ST AUGUSTINE               81      20/ 14/ 16 1017.2R

$$
FLZ040-043>046-052-053-057-058-063-144-271600-
INTERIOR CENTRAL FLORIDA

CITY           SKY/WX    TMP DP  RH WIND       PRES   REMARKS
OCALA          SUNNY     84  68  58 NE8       30.02S
LEESBURG       MOSUNNY   87  71  58 N8        30.02R
SANFORD        PTSUNNY   86  72  62 N10       30.00R
ORLANDO EXEC   MOSUNNY   88  71  57 N8        30.00R
ORLANDO INTL   MOSUNNY   86  72  62 VRB5      30.00R
KISSIMMEE      PTSUNNY   86  73  66 E9        30.01R
WINTER HAVEN   MOSUNNY   86  69  56 VRB7      30.01S
LAKELAND       MOSUNNY   84  70  61 NE7       30.01R
BARTOW         MOSUNNY   82  70  65 N7        30.01R
OKEECHOBEE     MOSUNNY   84  73  70 MISG      29.98S

$$
FLZ041-047-054-059-064-141-147-271600-
EAST CENTRAL FLORIDA

CITY           SKY/WX    TMP DP  RH WIND       PRES   REMARKS
ORMOND BEACH   MOSUNNY   82  70  65 N12       30.01R
DAYTONA BEACH  MOSUNNY   85  67  54 N12       30.01R
DELAND         MOSUNNY   82  72  69 NE10      30.01S
NEW SMYRNA BEA PTSUNNY   84  73  70 N12G20    30.01R
JFK SPACE CTR  MOSUNNY   84  75  74 N8        29.98R
TITUSVILLE     PTSUNNY   84  73  70 N12       29.99R
CAPE CANAVERAL SUNNY     86  73  64 VRB7      29.97S
PATRICK AFB    SUNNY     86  73  64 VRB2      29.99R
MELBOURNE      MOSUNNY   87  71  58 VRB3      29.98R
VERO BEACH     PTSUNNY   84  72  67 NE7       29.98R
FT PIERCE      CLOUDY    86  72  62 N7        29.98R
STUART         MOSUNNY   84  72  65 NE14      29.98S

STATION/POSITION SKY/WX   TEMP    WIND        PRES    WAVE   SWELL
                          AIR SEA DIR/SP/G            HT/PER HT/PER
                          (F)     (DEG/KT/KT) (MB)    (FT/S) (FT/S)
28.5N   80.2W              80 83  300/ 10/ 14 1014.8R
28.9N   78.5W              82 84  350/  8/  8 1014.5R   8/10   8/10
TRIDENT PIER               83 83  330/  6/ 11 1014.7R
28.4N   80.5W                 83                N/A     3/10   2/11
27.6N   80.2W                 83                N/A     5/11   2/11

$$
FLZ050-056-061-142-242-148-248-149-249-151-251-155-255-
160-260-271600-
WEST CENTRAL FLORIDA

CITY           SKY/WX    TMP DP  RH WIND       PRES   REMARKS
CRYSTAL RIVER  FAIR      86  68  54 E6        30.02R
INVERNESS      FAIR      84  55  37 NE6       30.02S
BROOKSVILLE    SUNNY     85  71  63 NE8       30.02R
ZEPHYRHILLS    PTSUNNY   84  70  61 NE6       30.02R
CLEARWATER     SUNNY     85  73  67 NE7       30.00R
TAMPA INTL     MOSUNNY   85  71  63 VRB6      30.01R
TAMPA EXEC     MOSUNNY   88  72  58 NE3       30.01S
MACDILL AFB    SUNNY     86  76  72 E10       30.00R HX  96
ST PETERSBURG  SUNNY     84  73  69 E9        29.99R
SARASOTA       MOSUNNY   86  71  60 E9        29.97S
VENICE           N/A    N/A N/A N/A MISG        N/A

STATION/POSITION SKY/WX   TEMP    WIND        PRES    WAVE   SWELL
                          AIR SEA DIR/SP/G            HT/PER HT/PER
                          (F)     (DEG/KT/KT) (MB)    (FT/S) (FT/S)
CEDAR KEY                  79      60/ 12/ 12 1016.7R
28.5N   84.5W              83 86   80/ 16/ 17 1015.9R   4/ 6
27.3N   84.3W                 87                N/A     4/ 6
CLEARWATER BEACH           83 85   50/  6/  9 1015.5R
MIDDLE TAMPA BAY           81      50/  9/ 12 1015.9R
VENICE                     83 87   80/  5/  9 1015.0R

$$
FLZ066-069-070-075>078-162-262-165-265-271600-
SOUTHWEST FLORIDA AND KEYS

CITY           SKY/WX    TMP DP  RH WIND       PRES   REMARKS
PUNTA GORDA    PTSUNNY   86  73  65 NE8       29.99F
FT MYERS       SUNNY     85  71  63 E13       29.97R
SOUTHWEST INTL MOSUNNY   85  70  60 NE12      29.97S
NAPLES         SUNNY     86  72  62 E10       29.96R
MARCO ISLAND   SUNNY     86  73  66 E12       29.96S
MARATHON       CLOUDY    90  76  63 E9        29.94R HX 101
KEY WEST NAS   MOSUNNY   89  76  65 NE15G22   29.93R HX 100
KEY WEST INTL  PTSUNNY   90  76  63 E10       29.93R HX 101

STATION/POSITION SKY/WX   TEMP    WIND        PRES    WAVE   SWELL
                          AIR SEA DIR/SP/G            HT/PER HT/PER
                          (F)     (DEG/KT/KT) (MB)    (FT/S) (FT/S)
VENICE                     83 87   80/  5/  9 1015.0R
NAPLES                     83      60/  6/ 11 1015.0S
DRY TORTUGAS               85      80/ 17/ 20 1013.5R
NW FL BAY                  84      60/ 12/ 14 1013.5S
SAND KEY                   85      80/ 14/ 17 1013.3R
SOMBRERO KEY               86     100/ 16/ 18 1014.3R
LONG KEY                   84 86   40/ 13/ 14 1014.2R
MOLASSES REEF              85 87   80/ 13/ 14 1014.0R

$$
FLZ067-068-071>074-168-172>174-271600-
SOUTHEAST FLORIDA

CITY           SKY/WX    TMP DP  RH WIND       PRES   REMARKS
W PALM BEACH   MOSUNNY   88  71  57 E8        29.95S
FT LAUDER-EXEC MOSUNNY   89  72  56 NE12      29.96R HX  96
FT LAUDERDALE  MOSUNNY   89  72  56 NE13      29.95S HX  96
POMPANO BEACH  MOSUNNY   89  71  55 NE10      29.96R HX  95
PEMBROKE PINES SUNNY     89  71  55 NE12      29.96S HX  95
OPA LOCKA      SUNNY     88  71  57 E9        29.95S
MIAMI          MOSUNNY   89  72  56 NE9       29.95S HX  96
WEST KENDALL   MOSUNNY   90  72  55 E8G17     29.95S HX  97
HOMESTEAD      SUNNY     87  73  62 E9        29.95R

STATION/POSITION SKY/WX   TEMP    WIND        PRES    WAVE   SWELL
                          AIR SEA DIR/SP/G            HT/PER HT/PER
                          (F)     (DEG/KT/KT) (MB)    (FT/S) (FT/S)
PORT EVERGLADES            85      40/  8/ 11 1014.4
VIRGINIA KEY               85 86   60/ 11/ 13   N/A
LAKE WORTH                 84 85   20/  8/  9 1014.4R
FOWEY ROCKS                84 87   60/ 11/ 12 1014.7R
SETTLEMENT POINT           83      40/  8/  9 1015.3R

$$



USA.gov is the U.S. government's official web portal to all federal, state and local government web resources and services.